Погода в Тимару

Новая Зеландия     44°23′54″S   171°14′54″E
темп.,
°C
ветер,
м/с
пор.,
м/с
влажн.,
%
обл.,
%
осадки,
мм/ч
давл.,
гПа
погр.,
м
8 мая, сб
сб800:00+10с2388100 0.0 103095
03:00+10с2285100 0.0 102892
06:00+9ссз1177100 0.0 102771
09:00+11с2367100 0.0 1026114
12:00+15ссв344891 0.0 1022274
15:00+16св465896 0.0 1019281
18:00+16ссз4563100 0.0 101753
21:00+14с4668100 0.0 101585
9 мая, вс
вс900:00+14ссв4570100 0.0 101376
03:00+14с2273100 0.0 101125
06:00+14с2373100 0.0 101127
09:00+16ссз3571100 0.0 101194
12:00+21ссз5754100 0.0 1010547
15:00+19в156593 0.1 1011141
18:00+14ю5889100 0.4 1015225
21:00+14ююз2393100 0.1 101793
10 мая, пн
пн1000:00+14ююз2290100 0.1 101861
03:00+13юв1192100 0.1 101964
06:00+13ссв229261 0.1 101869
09:00+12с34920 0.0 1019134
12:00+16ссв4578100 0.0 1018353
15:00+16св5678100 0.0 1016270
18:00+13ссв479480 0.0 1015114
21:00+14ссв3390100 0.0 101349
11 мая, вт
вт1100:00+14ссв3477100 0.0 101050
03:00+13ссз3365100 0.0 100544
06:00+13с4676100 0.0 100199
09:00+14с36870 0.1 999114
12:00+22сз714453 0.1 10001201
15:00+22сз7134147 0.0 10001187
18:00+12ю12168352 0.0 1006605
21:00+9ю111484100 0.9 10111029
12 мая, ср
ср1200:00+9ююз71071100 6.6 10151200
03:00+7юз6979100 1.3 1018887
06:00+7ююз6973100 2.7 1020778
09:00+7ююз6870100 0.4 10231109
12:00+9ююз895794 0.8 10241513
15:00+9ю7855100 0.3 10241569
18:00+8ю675589 0.4 1026850
21:00+8ююз4562100 0.2 1027685